Wind_Speed
52 53 54 55 56 58 60 60 59 58 58 58 56 55 53 50 49 50 50 50 49 49 50 50 48 47 46 48 50 52 52 49 46 43 41 40 39 37 36 34 32 31
53 53 54 54 55 56 57 58 58 56 55 56 55 54 52 50 49 50 50 50 50 49 49 48 47 47 47 48 49 51 51 49 45 43 41 40 39 37 36 34 32 31
53 53 53 53 54 55 55 56 56 55 53 54 55 53 51 49 50 50 50 51 51 50 48 47 47 47 47 48 49 50 49 46 44 42 41 40 39 37 36 34 33 32
52 53 53 53 53 54 54 54 55 54 52 52 54 53 50 49 50 51 50 50 51 50 48 47 46 47 48 48 49 49 47 44 42 42 41 40 38 37 36 35 34 32
51 51 52 53 53 53 54 54 54 53 51 51 52 52 51 51 51 50 49 50 50 50 49 47 47 47 48 48 49 48 45 43 43 42 42 40 38 37 36 35 34 33
50 51 51 51 52 53 53 53 53 53 51 50 50 52 53 52 51 49 49 49 49 49 49 48 48 48 48 49 49 48 45 44 43 42 42 40 39 38 37 35 34 34
49 49 50 50 51 52 53 52 52 52 51 49 49 51 53 53 51 48 48 48 49 49 49 49 49 49 49 49 49 48 46 44 44 43 42 40 39 38 37 35 34 34
47 48 48 49 49 51 52 51 51 51 51 50 49 50 52 52 50 48 48 48 49 49 50 50 50 50 50 49 49 48 46 46 45 44 42 41 40 39 37 35 35 34
45 46 46 47 48 49 50 50 49 48 49 51 50 50 51 52 50 48 48 49 49 50 51 51 51 51 51 50 50 48 47 47 46 44 42 41 40 38 36 35 35 34
44 45 45 45 45 46 47 48 48 47 48 50 51 51 50 51 50 49 49 50 51 51 52 52 51 51 50 49 49 49 49 48 47 44 42 41 40 38 36 35 35 33
44 45 45 44 44 44 45 46 47 47 47 48 51 52 52 51 50 49 50 51 51 52 52 52 52 51 50 48 47 48 50 50 48 45 43 42 40 38 37 36 35 34
43 44 45 44 43 43 44 44 46 46 47 48 50 52 53 52 51 50 50 51 52 52 52 53 53 53 51 48 46 48 51 52 49 46 44 43 42 40 38 37 35 35
43 44 45 44 43 43 43 44 45 46 47 48 49 52 54 54 52 52 52 52 52 52 52 53 54 54 53 50 47 49 52 52 50 48 46 45 44 42 40 38 36 36
42 43 44 44 43 43 42 43 45 46 47 48 49 51 54 55 54 53 53 53 53 53 53 53 55 56 55 53 50 50 52 52 51 49 48 47 45 43 41 39 38 38
40 42 44 44 43 42 42 42 44 46 47 48 49 51 53 55 56 55 54 54 55 54 54 54 56 57 56 54 52 51 52 53 52 51 50 49 46 43 41 40 39 39
37 39 42 43 43 42 42 42 43 45 47 48 49 50 52 54 56 56 56 56 56 56 56 55 56 56 56 55 53 52 52 54 53 52 52 50 46 44 42 40 39 39
32 36 38 41 42 42 41 41 42 43 45 47 49 51 52 54 55 56 56 57 57 57 57 56 56 55 54 54 54 53 53 54 55 54 53 50 47 44 42 41 40 40
27 30 34 37 40 41 41 41 40 41 43 45 48 50 52 53 54 55 56 57 58 58 58 58 57 56 54 53 54 54 54 55 56 56 54 52 48 45 43 42 41 41
22 25 29 32 36 39 40 40 40 40 40 42 44 48 51 53 53 54 55 57 58 58 58 58 58 57 55 54 53 53 54 55 57 57 56 53 50 47 45 44 43 43
19 21 25 28 31 34 37 38 39 38 38 40 41 43 47 51 53 53 54 55 57 58 59 59 59 58 57 55 53 53 54 56 58 58 57 55 52 49 47 46 45 45
17 18 21 24 27 30 33 36 37 37 37 38 40 41 43 47 50 52 53 54 55 57 58 59 60 59 58 56 55 54 55 56 58 59 59 57 55 52 50 49 48 47
18 17 19 21 24 26 29 31 34 36 36 37 39 41 42 44 47 51 53 54 54 56 58 59 60 60 59 58 57 56 56 57 58 60 60 59 57 54 53 52 51 50
20 18 17 19 21 24 26 28 30 33 35 37 38 40 41 41 44 47 51 53 54 55 56 58 59 60 60 60 59 58 58 58 59 59 60 59 58 57 56 55 54 52
22 20 18 17 19 22 25 27 28 29 31 34 36 38 40 41 41 43 47 51 53 54 55 56 57 58 60 60 61 60 60 60 60 61 61 61 61 60 59 57 55 53
26 23 20 18 19 22 25 26 28 29 28 29 31 34 37 40 42 43 44 47 51 53 55 56 56 56 58 59 59 60 60 61 62 63 63 63 63 61 59 57 56 54
29 26 22 20 21 23 25 26 27 29 29 28 28 29 31 35 40 44 44 45 48 51 54 56 56 56 56 56 57 57 57 58 59 60 60 60 60 59 58 57 56 55
Wind_Direction
252 253 254 254 254 254 253 251 250 249 247 246 247 247 245 243 242 242 245 246 247 247 247 246 245 243 239 235 234 234 234 232 230 230 232 233 234 236 238 240 242 245
250 251 252 253 253 254 254 253 251 250 247 246 245 245 245 242 240 239 241 242 243 244 244 245 245 243 238 234 232 232 231 230 229 230 231 232 233 235 238 239 241 244
248 249 250 251 253 253 254 253 252 251 248 245 244 243 243 241 239 239 239 240 241 241 241 242 242 241 238 234 231 230 229 229 230 230 231 231 232 235 237 239 240 243
247 248 248 249 251 252 252 252 252 251 249 245 243 242 242 241 239 239 239 238 239 239 239 239 238 238 237 234 231 229 229 229 229 229 229 230 231 233 236 238 239 242
249 248 248 248 248 249 250 250 250 250 249 247 244 241 240 240 239 239 238 237 237 238 237 236 234 234 234 234 232 230 229 228 228 228 229 229 231 232 234 237 239 242
250 250 249 248 247 248 248 249 248 249 249 247 245 241 239 240 240 239 237 236 236 237 236 234 232 231 231 232 232 230 228 228 228 228 229 229 231 232 234 236 239 242
251 251 251 250 249 248 248 248 247 246 247 246 244 242 239 239 240 238 237 235 235 235 235 233 231 230 230 231 231 230 229 228 227 227 228 229 230 232 234 236 239 241
250 250 251 251 250 249 248 247 246 245 245 244 244 242 240 239 239 238 236 235 234 234 233 232 231 230 230 230 231 230 229 228 227 227 227 228 231 232 234 236 239 241
248 249 250 251 250 250 248 247 246 245 243 243 243 243 240 239 237 236 235 234 234 233 232 232 232 231 230 229 230 229 229 229 228 227 227 229 232 233 234 236 239 240
246 246 247 249 249 249 248 247 245 244 242 241 241 242 241 239 236 234 234 234 233 232 231 231 232 231 230 230 230 229 229 229 229 228 228 230 232 233 235 237 238 240
246 245 245 246 247 247 246 245 244 243 241 239 239 240 240 239 236 233 233 234 233 233 232 231 231 231 230 230 231 230 229 229 229 228 228 229 232 234 235 236 238 238
246 245 243 243 245 245 244 243 243 241 240 239 238 238 238 238 236 233 232 233 234 233 232 231 231 230 231 231 232 231 230 229 228 227 228 230 232 233 234 236 237 237
248 244 243 241 242 243 243 242 241 240 239 238 237 237 237 236 235 232 231 232 232 233 232 231 230 230 231 232 233 232 231 229 228 228 228 230 233 234 234 235 236 237
251 246 243 240 239 240 240 241 241 240 239 238 237 237 236 236 235 232 231 230 231 231 231 231 230 230 231 233 234 233 231 229 228 228 229 231 233 234 234 235 237 237
255 250 245 241 239 238 238 239 239 239 239 238 237 237 237 236 234 232 231 230 230 230 230 230 230 230 231 233 234 233 231 230 229 229 230 231 233 234 233 235 237 239
257 254 249 244 240 237 236 237 238 239 239 238 237 236 236 236 234 232 231 230 229 229 229 229 230 230 231 232 233 232 230 230 230 230 230 231 233 232 232 235 238 240
260 256 252 248 242 238 236 236 238 239 239 237 236 235 235 236 235 233 232 231 230 230 229 229 230 230 231 231 231 231 230 230 230 230 231 232 232 232 233 236 238 240
265 259 255 251 246 241 236 235 236 239 240 239 236 234 233 234 234 233 232 231 231 230 230 230 230 230 230 230 230 230 230 229 229 230 230 231 232 233 235 237 239 239
275 266 259 254 249 244 239 235 234 236 240 241 239 236 234 233 232 232 232 232 231 231 230 230 230 230 230 230 229 230 230 229 229 229 230 231 233 234 235 237 239 239
284 277 267 259 253 248 242 237 233 232 235 239 240 238 235 233 232 231 231 231 232 232 231 230 230 230 230 229 229 228 228 228 228 229 230 231 233 234 236 237 238 238
286 285 279 269 260 252 246 240 234 231 230 234 237 237 236 234 232 231 230 230 231 232 231 231 230 230 229 229 228 227 227 227 227 228 230 231 233 234 236 237 237 236
282 284 284 279 271 261 252 245 238 232 229 229 232 234 235 234 232 231 230 229 229 230 231 231 230 229 228 228 228 227 226 226 227 228 230 231 232 234 236 237 235 234
278 278 279 281 280 274 264 254 245 237 231 228 228 230 233 233 232 230 229 229 229 229 230 231 230 229 228 227 227 226 226 227 228 228 230 232 234 236 237 236 235 233
274 275 274 275 279 281 276 268 257 247 237 230 227 227 229 231 231 230 229 228 228 228 229 230 231 230 229 228 228 227 227 228 229 231 232 234 236 236 235 234 232 231
271 272 272 272 274 278 280 276 269 260 249 237 229 227 227 229 230 230 228 227 227 227 228 229 230 230 229 229 228 228 229 230 231 232 233 234 235 234 232 230 229 228
267 270 269 268 269 270 274 276 274 268 260 250 238 228 226 227 229 229 228 227 226 226 226 227 228 229 229 229 228 227 228 228 229 230 231 231 231 230 228 227 226 225
Height
3013 3015 3016 3017 3019 3020 3022 3025 3028 3030 3032 3035 3036 3038 3041 3044 3047 3049 3051 3052 3054 3056 3058 3061 3063 3064 3066 3068 3070 3073 3076 3079 3081 3083 3085 3087 3088 3090 3092 3093 3094 3095
3007 3008 3009 3011 3012 3014 3016 3018 3021 3025 3027 3029 3031 3032 3035 3037 3040 3043 3045 3046 3048 3050 3053 3055 3057 3059 3060 3062 3064 3067 3070 3073 3076 3078 3080 3082 3084 3085 3087 3089 3090 3091
3000 3002 3003 3005 3006 3008 3010 3012 3015 3018 3021 3023 3024 3026 3029 3032 3034 3036 3038 3040 3042 3044 3047 3049 3052 3054 3056 3057 3058 3061 3064 3068 3071 3074 3076 3078 3079 3081 3083 3085 3086 3087
2994 2995 2997 2999 3000 3001 3003 3005 3008 3011 3014 3016 3018 3021 3024 3026 3028 3030 3032 3034 3036 3038 3041 3044 3046 3049 3051 3052 3053 3056 3059 3063 3066 3068 3070 3073 3075 3077 3079 3080 3082 3083
2988 2989 2991 2992 2994 2995 2996 2998 3001 3004 3007 3010 3012 3016 3018 3019 3021 3024 3027 3029 3031 3033 3035 3038 3040 3043 3045 3047 3049 3051 3054 3057 3060 3063 3066 3068 3070 3072 3074 3075 3077 3079
2981 2983 2984 2986 2988 2989 2990 2992 2995 2998 3001 3004 3007 3009 3011 3013 3016 3019 3021 3024 3026 3028 3030 3032 3034 3037 3039 3042 3044 3047 3050 3052 3055 3058 3061 3064 3066 3068 3070 3071 3073 3075
2975 2976 2978 2979 2981 2983 2984 2986 2989 2991 2994 2997 3000 3003 3005 3007 3010 3013 3016 3019 3021 3023 3025 3027 3029 3031 3034 3037 3039 3042 3045 3048 3051 3053 3056 3059 3061 3063 3065 3067 3069 3070
2969 2970 2971 2973 2974 2976 2978 2980 2982 2985 2988 2990 2993 2996 2999 3002 3005 3008 3011 3013 3015 3017 3019 3022 3023 3026 3028 3031 3035 3038 3041 3044 3046 3049 3051 3054 3056 3058 3061 3062 3064 3066
2963 2964 2966 2967 2968 2969 2971 2973 2976 2978 2981 2984 2987 2990 2993 2996 2999 3002 3005 3007 3009 3011 3013 3016 3018 3020 3023 3026 3030 3033 3037 3039 3042 3044 3047 3050 3052 3054 3056 3058 3060 3062
2957 2958 2959 2961 2962 2963 2965 2967 2969 2971 2974 2977 2980 2983 2986 2989 2993 2996 2999 3001 3003 3005 3007 3010 3013 3016 3019 3022 3025 3029 3032 3035 3037 3040 3043 3045 3048 3050 3052 3054 3056 3058
2951 2952 2953 2954 2956 2957 2959 2961 2962 2964 2967 2970 2973 2976 2980 2983 2986 2990 2993 2996 2998 3000 3002 3005 3008 3011 3014 3018 3021 3025 3027 3029 3032 3036 3038 3041 3043 3045 3048 3050 3052 3053
2945 2946 2947 2948 2950 2951 2953 2955 2956 2958 2960 2963 2966 2969 2972 2976 2980 2984 2987 2990 2993 2995 2998 3000 3003 3006 3009 3013 3016 3019 3021 3024 3027 3030 3033 3036 3039 3041 3044 3046 3047 3048
2939 2939 2940 2942 2943 2945 2947 2949 2950 2952 2954 2956 2959 2962 2965 2969 2973 2977 2980 2983 2986 2989 2992 2995 2997 3000 3003 3007 3010 3013 3016 3019 3022 3025 3028 3031 3034 3037 3039 3041 3042 3043
2934 2934 2934 2935 2936 2938 2941 2943 2944 2946 2948 2950 2952 2955 2958 2962 2966 2970 2973 2976 2980 2983 2986 2989 2991 2994 2997 3000 3004 3007 3010 3014 3017 3020 3024 3026 3029 3032 3035 3036 3037 3039
2928 2929 2929 2929 2930 2931 2933 2936 2938 2940 2942 2944 2946 2949 2952 2955 2959 2962 2966 2969 2972 2975 2978 2981 2984 2987 2991 2995 2999 3002 3005 3009 3012 3015 3018 3021 3024 3027 3030 3031 3033 3034
2924 2924 2924 2924 2924 2925 2926 2929 2931 2933 2935 2937 2940 2943 2945 2949 2952 2955 2959 2962 2965 2968 2971 2974 2978 2981 2985 2989 2993 2996 3000 3003 3006 3010 3013 3016 3019 3022 3024 3026 3028 3030
2919 2919 2919 2919 2919 2919 2920 2922 2924 2926 2928 2931 2933 2936 2939 2942 2946 2949 2952 2956 2958 2962 2965 2968 2971 2975 2979 2983 2986 2990 2993 2997 3000 3004 3008 3011 3014 3017 3019 3021 3023 3025
2915 2915 2915 2915 2915 2915 2915 2916 2918 2920 2922 2924 2926 2929 2932 2935 2939 2943 2946 2949 2952 2955 2958 2962 2965 2969 2972 2976 2980 2983 2987 2991 2995 2999 3002 3005 3008 3012 3014 3016 3018 3020
2912 2911 2911 2911 2911 2911 2911 2911 2912 2914 2916 2918 2920 2923 2925 2929 2933 2936 2940 2943 2946 2949 2952 2955 2959 2962 2966 2970 2974 2977 2981 2985 2989 2992 2996 2999 3003 3006 3009 3011 3013 3015
2909 2908 2908 2908 2907 2907 2907 2907 2907 2908 2910 2912 2915 2917 2919 2922 2926 2929 2933 2937 2940 2943 2946 2949 2952 2956 2960 2964 2967 2971 2975 2978 2982 2986 2990 2994 2997 3000 3003 3005 3008 3010
2906 2905 2905 2904 2904 2904 2904 2903 2903 2903 2904 2906 2909 2911 2913 2916 2919 2923 2926 2930 2934 2937 2940 2943 2946 2949 2953 2957 2960 2964 2968 2972 2976 2980 2983 2987 2990 2994 2997 3000 3002 3005
2903 2903 2902 2901 2901 2901 2900 2900 2899 2899 2899 2900 2902 2905 2908 2910 2912 2916 2919 2923 2927 2931 2934 2937 2940 2943 2946 2950 2954 2958 2962 2965 2970 2973 2976 2980 2984 2988 2991 2993 2996 2999
2901 2900 2899 2898 2898 2898 2897 2897 2896 2896 2895 2895 2896 2899 2902 2904 2907 2909 2913 2916 2920 2924 2927 2931 2934 2937 2941 2944 2948 2952 2955 2959 2964 2967 2970 2974 2978 2981 2984 2987 2990 2993
2898 2897 2896 2895 2895 2895 2895 2894 2894 2893 2892 2891 2891 2893 2896 2899 2901 2904 2906 2910 2913 2917 2920 2924 2928 2932 2935 2938 2942 2945 2950 2954 2958 2961 2964 2968 2971 2974 2977 2981 2984 2988
2895 2894 2893 2892 2892 2891 2891 2891 2891 2890 2890 2889 2888 2888 2890 2892 2895 2898 2900 2903 2906 2910 2913 2917 2921 2925 2929 2932 2935 2939 2943 2947 2950 2953 2957 2960 2964 2967 2971 2974 2978 2982
2891 2891 2890 2889 2888 2888 2888 2888 2888 2888 2887 2886 2885 2884 2884 2886 2889 2892 2894 2897 2900 2903 2907 2910 2914 2919 2922 2926 2929 2933 2936 2940 2943 2946 2950 2953 2957 2961 2964 2968 2973 2976